Find Starlink 33694

NORAD ID: 63407 Int'l Des: 2025-065 Owner: SPXS Country: US Constellation: starlink operational
LEOCIRCULAR

Current View

Loading 3D Globe...

About Starlink 33694

Starlink 33694 (NORAD 63407) is a starlink constellation satellite (v2 mini) launched Mar 31, 2025 by SPXS of US. It operates in LEO, CIRCULAR orbit with a mass of 575.00 kg.

About Starlink 33694

Description loading...

Upcoming Passes

Passes for default location (London). Set your location on the main map for personalized predictions.

Altitude History

Loading altitude history...

Two-Line Element Set

1 63407U 25065J 26167.56306853 .00019900 00000-0 73008-3 0 9996
2 63407 43.0023 268.4936 0001707 277.4824 82.5833 15.27608398 67967
Epoch: Jun 16, 2026 • Age: 38 hours

Current Status

Altitude 485.7 km
Velocity 7.63 km/s
Sub-Earth Point 36.71°N, 65.03°E
Launch Date Mar 31, 2025
Age 1.2 years
Type internet

Technical Details

Classification Payload
Mass 575.00 kg
Dry Mass 530.00 kg
Total Mass 575.00 kg
Length 0.30 m
Diameter 4.10 m
Span 29.00 m
Shape Box + pan
Manufacturer SPXS
Bus Type Starlink V2MO
Phase Status In Orbit
Owner/State SPXS/US

Most Searched